Location: Betzi
(47.2343°N, 9.5260°E)
Time: 22:24:43
(UTC+00:00)

SL-16 R/B - Pass Details

Date: 27 May 2022
Orbit: 839 x 850 km, 71.0° (Epoch: 29 June)

Event Time Altitude Azimuth Distance (km) Brightness Sun altitude
Exits shadow 00:02:37 19° 132° (SE) 1,905 3.7 -20.8°
Maximum altitude 00:04:43 23° 102° (ESE) 1,702 3.8 -20.7°
Drops below altitude 10° 00:09:06 10° 51° (NE) 2,473 5.3 -20.6°
Sets 00:12:00 0° 38° (NE) 3,415 6.5 -20.5°
